| time (UTC) | temp F | wind direction | speed MPH | gust MPH | rain 1hr in | rain 24hr in | rain mn in | humidity % | barometer mb |
| 20260504033711 | 59 | 203 | 0.0 | 2.0 | 0.00 | 0.00 | 0.00 | 59 | 1004.4 |
| 20260504033208 | 60 | 212 | 0.0 | 4.0 | 0.00 | 0.00 | 0.00 | 58 | 1004.6 |
| 20260504032705 | 60 | 213 | 2.0 | 5.0 | 0.00 | 0.00 | 0.00 | 57 | 1004.6 |
| 20260504032202 | 60 | 211 | 0.0 | 4.0 | 0.00 | 0.00 | 0.00 | 57 | 1004.6 |
| 20260504031659 | 60 | 225 | 2.0 | 4.0 | 0.00 | 0.00 | 0.00 | 57 | 1004.5 |
| 20260504031155 | 60 | 197 | 3.0 | 3.0 | 0.00 | 0.00 | 0.00 | 57 | 1004.5 |
| 20260504030652 | 60 | 129 | 0.0 | 2.0 | 0.00 | 0.00 | 0.00 | 57 | 1004.7 |
| 20260504030148 | 60 | 182 | 0.0 | 3.0 | 0.00 | 0.00 | 0.00 | 56 | 1004.7 |
| 20260504025645 | 60 | 267 | 2.0 | 4.0 | 0.00 | 0.00 | 0.00 | 56 | 1004.8 |
| 20260504025142 | 60 | 212 | 0.0 | 2.0 | 0.00 | 0.00 | 0.00 | 56 | 1004.7 |
| 20260504024640 | 60 | 110 | 0.0 | 2.0 | 0.00 | 0.00 | 0.00 | 56 | 1004.7 |
| 20260504024136 | 60 | 218 | 2.0 | 4.0 | 0.00 | 0.00 | 0.00 | 56 | 1004.7 |
| 20260504023633 | 60 | 147 | 0.0 | 3.0 | 0.00 | 0.00 | 0.00 | 56 | 1004.7 |
| 20260504023129 | 60 | 198 | 0.0 | 2.0 | 0.00 | 0.00 | 0.00 | 55 | 1004.6 |
| 20260504022625 | 60 | 179 | 0.0 | 2.0 | 0.00 | 0.00 | 0.00 | 55 | 1004.7 |
| 20260504022121 | 61 | 229 | 0.0 | 0.0 | 0.00 | 0.00 | 0.00 | 55 | 1004.5 |
| 20260504021619 | 61 | 178 | 0.0 | 1.0 | 0.00 | 0.00 | 0.00 | 54 | 1004.6 |
| 20260504021115 | 61 | 212 | 0.0 | 3.0 | 0.00 | 0.00 | 0.00 | 54 | 1004.6 |
| 20260504020613 | 61 | 225 | 1.0 | 2.0 | 0.00 | 0.00 | 0.00 | 54 | 1004.7 |
| 20260504020109 | 61 | 129 | 0.0 | 1.0 | 0.00 | 0.00 | 0.00 | 54 | 1004.4 |
| 20260504015605 | 61 | 157 | 0.0 | 1.0 | 0.00 | 0.00 | 0.00 | 54 | 1004.4 |
| 20260504015101 | 61 | 230 | 0.0 | 1.0 | 0.00 | 0.00 | 0.00 | 54 | 1004.4 |
| 20260504014557 | 60 | 139 | 0.0 | 1.0 | 0.00 | 0.00 | 0.00 | 53 | 1004.4 |
| 20260504014055 | 61 | 89 | 0.0 | 1.0 | 0.00 | 0.00 | 0.00 | 52 | 1004.3 |
| 20260504013552 | 61 | 117 | 0.0 | 0.0 | 0.00 | 0.00 | 0.00 | 52 | 1004.3 |
| 20260504013049 | 62 | 195 | 0.0 | 1.0 | 0.00 | 0.00 | 0.00 | 51 | 1004.3 |
| 20260504012547 | 62 | 322 | 0.0 | 1.0 | 0.00 | 0.00 | 0.00 | 51 | 1004.2 |
| 20260504012044 | 62 | 230 | 0.0 | 0.0 | 0.00 | 0.00 | 0.00 | 50 | 1004.2 |
| 20260504011541 | 63 | 140 | 0.0 | 2.0 | 0.00 | 0.00 | 0.00 | 49 | 1004.0 |
| 20260504011037 | 63 | 48 | 0.0 | 0.0 | 0.00 | 0.00 | 0.00 | 49 | 1003.9 |
| 20260504010533 | 64 | 89 | 1.0 | 1.0 | 0.00 | 0.00 | 0.00 | 48 | 1003.9 |
| 20260504010029 | 64 | 209 | 2.0 | 2.0 | 0.00 | 0.00 | 0.00 | 47 | 1004.0 |
| 20260504005526 | 65 | 102 | 2.0 | 2.0 | 0.00 | 0.00 | 0.00 | 46 | 1003.8 |
| 20260504005023 | 65 | 239 | 2.0 | 2.0 | 0.00 | 0.00 | 0.00 | 45 | 1004.0 |
| 20260504004521 | 66 | 221 | 2.0 | 4.0 | 0.00 | 0.00 | 0.00 | 45 | 1004.0 |
| 20260504004018 | 66 | 224 | 0.0 | 3.0 | 0.00 | 0.00 | 0.00 | 44 | 1003.9 |
| 20260504003514 | 66 | 252 | 2.0 | 4.0 | 0.00 | 0.00 | 0.00 | 44 | 1004.1 |
| 20260504003011 | 66 | 269 | 0.0 | 4.0 | 0.00 | 0.00 | 0.00 | 43 | 1004.0 |
| 20260504002508 | 67 | 220 | 2.0 | 3.0 | 0.00 | 0.00 | 0.00 | 43 | 1004.0 |
| 20260504002005 | 67 | 232 | 5.0 | 5.0 | 0.00 | 0.00 | 0.00 | 42 | 1004.1 |
| 20260504001503 | 67 | 277 | 2.0 | 6.0 | 0.00 | 0.00 | 0.00 | 42 | 1004.0 |
| 20260504000959 | 67 | 245 | 0.0 | 4.0 | 0.00 | 0.00 | 0.00 | 41 | 1003.8 |
| 20260504000456 | 68 | 321 | 2.0 | 5.0 | 0.00 | 0.00 | 0.00 | 40 | 1004.1 |
| 20260503235953 | 68 | 240 | 2.0 | 6.0 | 0.00 | 0.00 | 0.00 | 40 | 1003.9 |
| 20260503235451 | 68 | 315 | 3.0 | 4.0 | 0.00 | 0.00 | 0.00 | 40 | 1004.1 |
| 20260503234948 | 68 | 285 | 3.0 | 6.0 | 0.00 | 0.00 | 0.00 | 39 | 1003.9 |
| 20260503234446 | 68 | 228 | 6.0 | 11.0 | 0.00 | 0.00 | 0.00 | 39 | 1003.9 |
| 20260503233944 | 68 | 244 | 4.0 | 11.0 | 0.00 | 0.00 | 0.00 | 39 | 1004.0 |
| 20260503233440 | 68 | 284 | 2.0 | 7.0 | 0.00 | 0.00 | 0.00 | 39 | 1004.0 |
| 20260503232936 | 69 | 244 | 8.0 | 9.0 | 0.00 | 0.00 | 0.00 | 38 | 1004.1 |
| 20260503232433 | 69 | 242 | 2.0 | 6.0 | 0.00 | 0.00 | 0.00 | 41 | 1004.2 |
| 20260503231931 | 69 | 211 | 7.0 | 11.0 | 0.00 | 0.00 | 0.00 | 39 | 1004.0 |
| 20260503231429 | 69 | 238 | 5.0 | 11.0 | 0.00 | 0.00 | 0.00 | 40 | 1004.0 |
| 20260503230925 | 69 | 258 | 2.0 | 11.0 | 0.00 | 0.00 | 0.00 | 40 | 1004.0 |
| 20260503230421 | 69 | 221 | 2.0 | 9.0 | 0.00 | 0.00 | 0.00 | 39 | 1004.1 |
| 20260503225919 | 69 | 245 | 6.0 | 11.0 | 0.00 | 0.00 | 0.00 | 39 | 1004.1 |
| 20260503225415 | 68 | 236 | 5.0 | 8.0 | 0.00 | 0.00 | 0.00 | 40 | 1004.2 |
| 20260503224911 | 69 | 219 | 4.0 | 6.0 | 0.00 | 0.00 | 0.00 | 40 | 1004.2 |
| 20260503224408 | 68 | 289 | 3.0 | 6.0 | 0.00 | 0.00 | 0.00 | 40 | 1004.5 |
| 20260503223906 | 68 | 288 | 6.0 | 9.0 | 0.00 | 0.00 | 0.00 | 39 | 1004.1 |
| 20260503223404 | 68 | 244 | 4.0 | 14.0 | 0.00 | 0.00 | 0.00 | 39 | 1004.3 |
| 20260503222859 | 68 | 219 | 5.0 | 7.0 | 0.00 | 0.00 | 0.00 | 39 | 1004.5 |
| 20260503222358 | 68 | 246 | 1.0 | 6.0 | 0.00 | 0.00 | 0.00 | 40 | 1004.4 |
| 20260503221856 | 68 | 259 | 2.0 | 9.0 | 0.00 | 0.00 | 0.00 | 40 | 1004.5 |
| 20260503221354 | 68 | 233 | 4.0 | 13.0 | 0.00 | 0.00 | 0.00 | 38 | 1004.6 |
| 20260503220850 | 68 | 241 | 4.0 | 8.0 | 0.00 | 0.00 | 0.00 | 38 | 1004.5 |
| 20260503220347 | 68 | 256 | 6.0 | 14.0 | 0.00 | 0.00 | 0.00 | 40 | 1004.7 |
| 20260503215844 | 68 | 214 | 11.0 | 12.0 | 0.00 | 0.00 | 0.00 | 39 | 1004.8 |
| 20260503215341 | 68 | 226 | 7.0 | 14.0 | 0.00 | 0.00 | 0.00 | 39 | 1004.7 |
| 20260503214838 | 68 | 260 | 3.0 | 8.0 | 0.00 | 0.00 | 0.00 | 38 | 1004.7 |
| 20260503214336 | 69 | 306 | 8.0 | 10.0 | 0.00 | 0.00 | 0.00 | 37 | 1004.7 |
| 20260503213833 | 68 | 244 | 6.0 | 6.0 | 0.00 | 0.00 | 0.00 | 38 | 1004.9 |
| 20260503213330 | 68 | 260 | 4.0 | 14.0 | 0.00 | 0.00 | 0.00 | 38 | 1005.1 |
| 20260503212827 | 69 | 219 | 6.0 | 13.0 | 0.00 | 0.00 | 0.00 | 37 | 1005.0 |
| 20260503212325 | 68 | 235 | 7.0 | 13.0 | 0.00 | 0.00 | 0.00 | 37 | 1005.0 |
| 20260503211822 | 68 | 273 | 3.0 | 16.0 | 0.00 | 0.00 | 0.00 | 38 | 1005.2 |
| 20260503211319 | 67 | 261 | 5.0 | 15.0 | 0.00 | 0.00 | 0.00 | 39 | 1005.3 |
| 20260503210819 | 67 | 249 | 9.0 | 10.0 | 0.00 | 0.00 | 0.00 | 38 | 1005.5 |
| 20260503210316 | 68 | 241 | 8.0 | 14.0 | 0.00 | 0.00 | 0.00 | 37 | 1005.5 |
| 20260503205811 | 68 | 220 | 3.0 | 12.0 | 0.00 | 0.00 | 0.00 | 38 | 1005.5 |
| 20260503205308 | 69 | 259 | 4.0 | 11.0 | 0.00 | 0.00 | 0.00 | 36 | 1005.6 |
| 20260503204805 | 68 | 217 | 6.0 | 11.0 | 0.00 | 0.00 | 0.00 | 38 | 1005.6 |
| 20260503204303 | 68 | 184 | 2.0 | 10.0 | 0.00 | 0.00 | 0.00 | 38 | 1005.9 |
| 20260503203759 | 67 | 242 | 4.0 | 13.0 | 0.00 | 0.00 | 0.00 | 37 | 1006.0 |
| 20260503203257 | 67 | 253 | 7.0 | 13.0 | 0.00 | 0.00 | 0.00 | 38 | 1005.9 |
| 20260503202754 | 66 | 153 | 3.0 | 16.0 | 0.00 | 0.00 | 0.00 | 39 | 1005.9 |
| 20260503202252 | 67 | 219 | 5.0 | 6.0 | 0.00 | 0.00 | 0.00 | 42 | 1006.2 |
| 20260503201749 | 67 | 92 | 2.0 | 9.0 | 0.00 | 0.00 | 0.00 | 41 | 1006.4 |
| 20260503201247 | 66 | 236 | 6.0 | 9.0 | 0.00 | 0.00 | 0.00 | 43 | 1006.5 |
| 20260503200743 | 67 | 240 | 8.0 | 12.0 | 0.00 | 0.00 | 0.00 | 43 | 1006.8 |
| 20260503200239 | 65 | 278 | 2.0 | 8.0 | 0.00 | 0.00 | 0.00 | 46 | 1006.9 |
| 20260503195736 | 65 | 250 | 7.0 | 16.0 | 0.00 | 0.00 | 0.00 | 44 | 1007.0 |
| 20260503195233 | 64 | 215 | 9.0 | 11.0 | 0.00 | 0.00 | 0.00 | 46 | 1007.2 |
| 20260503194731 | 64 | 228 | 6.0 | 13.0 | 0.00 | 0.00 | 0.00 | 44 | 1007.4 |
| 20260503194226 | 64 | 241 | 10.0 | 19.0 | 0.00 | 0.00 | 0.00 | 43 | 1007.2 |
| 20260503193723 | 64 | 132 | 3.0 | 19.0 | 0.00 | 0.00 | 0.00 | 43 | 1007.2 |
| 20260503193219 | 64 | 252 | 2.0 | 12.0 | 0.00 | 0.00 | 0.00 | 44 | 1007.1 |
| 20260503192715 | 64 | 215 | 6.0 | 12.0 | 0.00 | 0.00 | 0.00 | 44 | 1007.0 |
| 20260503192210 | 64 | 264 | 3.0 | 9.0 | 0.00 | 0.00 | 0.00 | 44 | 1007.0 |
| 20260503191707 | 63 | 203 | 6.0 | 11.0 | 0.00 | 0.00 | 0.00 | 45 | 1007.0 |
| 20260503191204 | 62 | 110 | 6.0 | 10.0 | 0.00 | 0.00 | 0.00 | 45 | 1007.5 |
| 20260503190701 | 62 | 243 | 4.0 | 14.0 | 0.00 | 0.00 | 0.00 | 44 | 1007.5 |
| 20260503190157 | 62 | 249 | 5.0 | 14.0 | 0.00 | 0.00 | 0.00 | 43 | 1007.5 |
| 20260503185654 | 62 | 240 | 4.0 | 12.0 | 0.00 | 0.00 | 0.00 | 46 | 1007.6 |
| 20260503185149 | 62 | 242 | 2.0 | 13.0 | 0.00 | 0.00 | 0.00 | 44 | 1007.7 |
| 20260503184645 | 62 | 223 | 4.0 | 12.0 | 0.00 | 0.00 | 0.00 | 45 | 1007.6 |
| 20260503184141 | 62 | 68 | 5.0 | 10.0 | 0.00 | 0.00 | 0.00 | 46 | 1007.7 |
| 20260503183638 | 62 | 236 | 3.0 | 7.0 | 0.00 | 0.00 | 0.00 | 47 | 1007.8 |
| 20260503183136 | 61 | 196 | 2.0 | 7.0 | 0.00 | 0.00 | 0.00 | 48 | 1007.9 |
| 20260503182633 | 61 | 166 | 4.0 | 10.0 | 0.00 | 0.00 | 0.00 | 47 | 1008.0 |
| 20260503182132 | 61 | 243 | 6.0 | 10.0 | 0.00 | 0.00 | 0.00 | 47 | 1008.1 |
| 20260503181628 | 60 | 254 | 4.0 | 10.0 | 0.00 | 0.00 | 0.00 | 49 | 1008.3 |
| 20260503181125 | 60 | 240 | 7.0 | 11.0 | 0.00 | 0.00 | 0.00 | 48 | 1008.2 |
| 20260503180622 | 59 | 119 | 4.0 | 13.0 | 0.00 | 0.00 | 0.00 | 49 | 1008.4 |
| 20260503180120 | 59 | 265 | 4.0 | 14.0 | 0.00 | 0.00 | 0.00 | 49 | 1008.6 |
| 20260503175616 | 60 | 259 | 6.0 | 11.0 | 0.00 | 0.00 | 0.00 | 50 | 1008.8 |
| 20260503175114 | 59 | 162 | 4.0 | 13.0 | 0.00 | 0.00 | 0.00 | 51 | 1009.0 |
| 20260503174610 | 59 | 253 | 6.0 | 11.0 | 0.00 | 0.00 | 0.00 | 51 | 1009.0 |
| 20260503174107 | 59 | 134 | 4.0 | 11.0 | 0.00 | 0.00 | 0.00 | 51 | 1009.4 |
| 20260503173602 | 59 | 293 | 5.0 | 23.0 | 0.00 | 0.00 | 0.00 | 52 | 1009.5 |
| 20260503173059 | 58 | 205 | 4.0 | 9.0 | 0.00 | 0.00 | 0.00 | 54 | 1009.6 |
| 20260503172556 | 57 | 78 | 4.0 | 8.0 | 0.00 | 0.00 | 0.00 | 56 | 1009.7 |
| 20260503172053 | 56 | 165 | 2.0 | 6.0 | 0.00 | 0.00 | 0.00 | 58 | 1009.9 |
| 20260503171549 | 56 | 231 | 3.0 | 9.0 | 0.00 | 0.00 | 0.00 | 59 | 1010.1 |
| 20260503171047 | 55 | 230 | 6.0 | 6.0 | 0.00 | 0.00 | 0.00 | 62 | 1010.3 |
| 20260503170543 | 55 | 278 | 3.0 | 9.0 | 0.00 | 0.00 | 0.00 | 61 | 1010.1 |
| 20260503150936 | 55 | 218 | 4.0 | 13.0 | 0.00 | 0.00 | 0.00 | 55 | 1011.6 |
| 20260503150432 | 55 | 256 | 3.0 | 11.0 | 0.00 | 0.00 | 0.00 | 54 | 1011.5 |
| 20260503131325 | 52 | 218 | 6.0 | 10.0 | 0.00 | 0.00 | 0.00 | 52 | 1012.5 |
| 20260503130823 | 52 | 236 | 3.0 | 11.0 | 0.00 | 0.00 | 0.00 | 52 | 1012.5 |
| 20260503130320 | 52 | 214 | 4.0 | 6.0 | 0.00 | 0.00 | 0.00 | 53 | 1012.6 |
| 20260503110714 | 48 | 297 | 3.0 | 6.0 | 0.00 | 0.00 | 0.00 | 55 | 1011.7 |
| 20260503110211 | 48 | 216 | 3.0 | 5.0 | 0.00 | 0.00 | 0.00 | 54 | 1012.0 |
| 20260503100137 | 47 | 207 | 2.0 | 3.0 | 0.00 | 0.00 | 0.00 | 55 | 1012.4 |
| 20260503081527 | 47 | 193 | 2.0 | 6.0 | 0.00 | 0.00 | 0.00 | 52 | 1013.0 |
| 20260503081024 | 47 | 78 | 0.0 | 8.0 | 0.00 | 0.00 | 0.00 | 52 | 1013.0 |
| 20260503080520 | 47 | 214 | 3.0 | 5.0 | 0.00 | 0.00 | 0.00 | 52 | 1012.9 |
| 20260503072454 | 46 | 228 | 2.0 | 4.0 | 0.00 | 0.00 | 0.00 | 52 | 1013.0 |
| 20260503071951 | 46 | 122 | 0.0 | 5.0 | 0.00 | 0.00 | 0.00 | 52 | 1012.9 |
| 20260503071448 | 46 | 268 | 1.0 | 4.0 | 0.00 | 0.00 | 0.00 | 52 | 1013.1 |
| 20260503070944 | 46 | 324 | 2.0 | 4.0 | 0.00 | 0.00 | 0.00 | 53 | 1013.1 |
| 20260503070441 | 46 | 190 | 0.0 | 2.0 | 0.00 | 0.00 | 0.00 | 53 | 1013.1 |
| 20260503054900 | 45 | 170 | 1.0 | 4.0 | 0.00 | 0.00 | 0.00 | 55 | 1013.7 |
| 20260503054356 | 45 | 126 | 0.0 | 2.0 | 0.00 | 0.00 | 0.00 | 55 | 1013.8 |
| 20260503053854 | 45 | 105 | 1.0 | 2.0 | 0.00 | 0.00 | 0.00 | 55 | 1013.9 |
| 20260503053352 | 45 | 194 | 1.0 | 1.0 | 0.00 | 0.00 | 0.00 | 55 | 1014.0 |
| 20260503052848 | 45 | 166 | 0.0 | 2.0 | 0.00 | 0.00 | 0.00 | 55 | 1014.1 |
| 20260503052345 | 46 | 103 | 2.0 | 2.0 | 0.00 | 0.00 | 0.00 | 55 | 1014.0 |
| 20260503051841 | 46 | 190 | 1.0 | 2.0 | 0.00 | 0.00 | 0.00 | 54 | 1014.0 |
| 20260503051337 | 46 | 166 | 1.0 | 4.0 | 0.00 | 0.00 | 0.00 | 54 | 1014.2 |
| 20260503050835 | 46 | 99 | 0.0 | 2.0 | 0.00 | 0.00 | 0.00 | 55 | 1014.1 |
| 20260503050331 | 45 | 204 | 0.0 | 2.0 | 0.00 | 0.00 | 0.00 | 55 | 1014.2 |
| 20260503045828 | 45 | 150 | 0.0 | 2.0 | 0.00 | 0.00 | 0.00 | 55 | 1014.2 |
| 20260503045326 | 46 | 148 | 0.0 | 1.0 | 0.00 | 0.00 | 0.00 | 55 | 1014.2 |
| 20260503044822 | 46 | 172 | 0.0 | 2.0 | 0.00 | 0.00 | 0.00 | 55 | 1014.3 |
| 20260503044319 | 46 | 201 | 0.0 | 3.0 | 0.00 | 0.00 | 0.00 | 55 | 1014.3 |
| 20260503043816 | 46 | 217 | 0.0 | 2.0 | 0.00 | 0.00 | 0.00 | 55 | 1014.2 |
| 20260503043313 | 46 | 186 | 0.0 | 2.0 | 0.00 | 0.00 | 0.00 | 55 | 1014.2 |
| 20260503042809 | 46 | 199 | 0.0 | 4.0 | 0.00 | 0.00 | 0.00 | 55 | 1014.2 |
| 20260503042306 | 46 | 206 | 2.0 | 3.0 | 0.00 | 0.00 | 0.00 | 55 | 1014.2 |
| 20260503041802 | 46 | 205 | 0.0 | 2.0 | 0.00 | 0.00 | 0.00 | 55 | 1014.5 |
| 20260503041300 | 46 | 229 | 0.0 | 2.0 | 0.00 | 0.00 | 0.00 | 55 | 1014.4 |
| 20260503040757 | 45 | 191 | 0.0 | 2.0 | 0.00 | 0.00 | 0.00 | 56 | 1014.3 |
| 20260503040255 | 45 | 156 | 0.0 | 2.0 | 0.00 | 0.00 | 0.00 | 56 | 1014.4 |
| 20260503035751 | 46 | 212 | 0.0 | 2.0 | 0.00 | 0.00 | 0.00 | 56 | 1014.4 |
| 20260503035249 | 45 | 160 | 0.0 | 1.0 | 0.00 | 0.00 | 0.00 | 56 | 1014.5 |
| 20260503034746 | 46 | 186 | 1.0 | 2.0 | 0.00 | 0.00 | 0.00 | 55 | 1014.4 |
| 20260503034243 | 46 | 155 | 0.0 | 1.0 | 0.00 | 0.00 | 0.00 | 55 | 1014.4 |